Wind_Speed
2 2 2 3 5 6 6 4 2 7 5 6 4 3 11 15 6 2 6 3 3 5 7 10 14 15 15 14 10 8 6 6 6 5 7 9 10 7 7 7 6 4 4 0 2 2 3 3 5
1 1 2 4 6 7 5 6 8 4 9 10 9 5 7 6 10 9 6 1 4 6 8 9 13 14 16 13 14 9 7 7 7 6 6 6 10 11 10 8 7 7 7 4 2 1 1 1 3
1 2 5 4 7 8 2 5 10 12 11 5 5 8 4 6 7 6 4 4 6 5 7 7 9 12 13 13 13 11 11 9 7 8 6 6 6 11 11 11 11 10 10 9 6 4 4 4 3
2 4 6 6 11 5 5 6 13 12 6 3 7 7 7 4 5 7 5 5 5 4 5 7 7 9 10 11 12 13 12 11 10 8 7 7 7 7 8 10 13 13 12 11 9 8 7 8 8
2 5 7 9 5 2 2 8 13 9 6 7 3 5 5 5 8 7 6 5 6 5 5 6 9 10 12 13 12 13 13 12 11 12 11 11 10 10 10 10 10 11 14 15 13 12 12 10 10
7 5 8 10 9 5 6 11 9 8 7 4 4 10 5 8 7 6 6 5 4 5 6 8 9 9 10 12 14 16 15 15 15 15 13 13 13 13 15 15 14 14 13 13 13 14 14 14 13
9 7 12 11 4 7 9 11 10 10 9 6 7 6 6 9 8 7 6 5 4 4 5 6 7 9 11 11 12 14 16 17 16 16 16 16 15 16 16 17 18 17 17 17 16 15 16 17 16
5 4 8 7 8 7 10 11 5 9 8 7 4 5 6 13 10 8 6 5 3 2 3 4 6 8 10 12 15 16 16 16 18 18 17 18 17 17 18 19 20 20 20 19 19 19 17 18 19
2 5 8 10 7 2 14 9 6 2 8 5 2 3 13 16 12 9 7 6 4 3 3 4 6 8 10 12 14 16 18 20 20 21 23 23 22 20 20 21 20 21 22 23 22 22 21 20 20
4 6 7 7 5 2 13 10 12 9 11 6 10 12 14 15 13 11 9 6 4 3 2 2 4 7 9 11 13 15 18 21 24 25 24 24 24 24 24 23 23 22 22 22 23 23 24 23 22
0 4 4 5 2 3 11 10 11 9 11 15 18 20 18 16 14 13 10 8 6 3 1 4 6 8 10 12 15 18 21 24 25 27 28 28 26 24 23 23 23 24 25 22 22 23 22 23 24
7 1 2 3 2 5 10 10 9 15 2 8 17 22 20 18 15 13 11 9 6 4 1 4 7 10 12 14 16 18 19 22 24 25 26 27 26 25 26 27 25 23 23 25 26 24 24 24 24
8 6 4 6 7 7 8 11 8 13 5 11 21 22 21 19 16 14 11 9 6 4 1 3 5 9 12 14 17 18 19 21 22 21 21 22 23 24 25 26 25 26 25 23 24 27 28 26 26
4 7 7 9 9 8 9 8 5 13 15 18 19 20 19 18 17 15 13 10 7 4 1 3 6 9 12 15 18 19 20 22 21 20 21 23 23 21 21 21 20 22 24 26 26 25 26 28 27
6 4 5 12 12 6 7 11 17 15 22 21 21 20 19 18 17 15 13 11 8 5 1 3 7 10 14 16 18 17 16 18 15 16 17 17 21 24 24 22 19 18 20 22 25 24 24 25 27
5 5 5 11 10 4 7 8 13 19 24 23 23 22 21 20 18 16 13 11 8 5 2 3 7 11 14 16 17 17 17 17 16 18 20 21 23 25 26 24 23 23 24 23 21 22 24 26 27
8 8 11 5 13 4 12 7 10 18 21 22 24 22 21 20 18 16 14 11 10 6 3 4 8 11 13 15 16 17 17 16 15 17 18 21 23 24 25 26 27 28 27 22 19 20 22 26 28
6 7 8 10 7 10 13 20 9 20 23 25 26 26 25 24 22 19 16 12 10 6 2 4 8 10 12 13 13 13 14 13 14 12 14 18 19 20 21 21 23 25 26 25 22 22 21 22 23
7 10 14 5 5 7 18 21 20 22 25 26 28 28 27 25 22 19 17 13 10 7 3 4 7 8 10 10 11 13 13 14 14 14 15 14 14 15 15 16 17 18 19 20 22 23 22 22 22
8 12 15 4 4 4 15 23 22 19 29 33 30 29 28 25 24 22 19 15 12 8 5 5 7 9 11 11 13 13 13 14 15 15 14 15 15 17 17 17 17 17 18 18 18 18 21 21 19
9 13 12 8 4 17 14 17 14 16 26 28 29 28 28 29 27 24 21 17 13 9 7 7 9 11 12 13 13 12 13 14 14 14 17 18 19 19 19 18 17 17 16 18 18 18 18 21 18
8 4 2 4 4 6 3 11 10 7 13 17 25 28 28 28 27 24 21 18 15 11 8 8 10 11 11 13 13 14 15 15 16 18 17 19 19 20 19 18 17 17 17 18 18 17 18 18 21
2 3 2 3 6 10 12 6 3 4 11 16 13 24 26 28 27 25 22 18 14 11 8 8 10 13 12 15 15 14 15 15 16 17 18 19 20 18 19 19 19 18 17 19 19 20 20 21 22
5 2 5 3 3 6 11 12 5 6 5 4 18 23 25 27 27 24 20 17 14 10 8 10 11 13 15 17 17 15 16 17 18 18 20 19 18 19 18 18 18 19 20 20 20 20 21 22 23
3 3 3 4 4 8 3 9 10 3 4 3 13 23 27 27 27 25 22 18 16 14 13 13 15 17 18 18 18 17 17 17 18 18 19 19 20 20 20 19 20 21 21 22 22 23 24 23 25
7 3 4 6 6 10 5 8 5 4 6 5 5 18 23 26 26 24 21 17 15 15 15 17 18 19 21 20 19 18 17 16 17 18 19 21 21 22 21 22 22 22 22 24 24 26 26 26 26
8 7 4 4 13 8 9 8 3 3 4 5 7 17 24 26 25 23 19 17 14 10 15 19 21 21 20 20 19 19 19 17 18 20 20 20 20 21 22 23 24 24 25 25 25 28 28 28 28
5 2 3 2 4 7 9 16 8 4 10 9 9 17 22 23 23 20 18 14 12 11 13 13 21 21 20 18 19 19 19 20 20 20 20 21 22 22 23 24 25 26 26 27 27 29 29 29 30
6 4 4 1 4 4 8 6 3 2 10 14 12 20 23 24 24 20 16 13 12 11 13 14 13 18 20 18 18 19 19 20 21 21 22 21 22 22 24 25 26 28 28 27 28 29 30 31 32
7 9 14 6 7 7 3 12 5 5 6 13 16 19 23 23 20 17 15 13 12 11 11 12 13 14 15 17 20 20 20 20 21 23 23 22 23 24 24 25 27 28 29 29 30 32 32 33 33
Wind_Direction
33 318 239 237 237 236 230 152 35 145 135 65 71 352 76 45 20 68 164 40 50 45 41 42 28 25 22 26 29 31 23 28 6 347 305 305 304 322 314 326 296 262 244 240 4 316 311 310 249
69 326 245 263 254 224 174 132 181 89 115 120 82 89 44 74 69 99 121 38 64 44 41 30 33 30 21 20 16 5 347 358 352 336 322 298 284 290 293 299 302 300 302 302 172 123 303 278 270
78 175 245 236 252 266 39 174 124 125 139 146 109 60 81 101 100 122 137 106 65 35 37 30 32 33 24 17 9 2 3 357 342 344 338 324 295 275 282 286 291 296 287 300 318 288 249 216 230
286 235 249 248 250 80 14 138 141 139 122 125 129 90 93 110 139 137 133 96 74 65 49 31 15 9 11 4 352 350 351 347 343 329 325 324 310 308 299 288 279 283 282 275 269 263 258 246 236
263 246 249 242 244 94 125 135 160 172 129 150 172 133 109 127 123 116 109 97 82 55 61 48 29 19 12 10 5 360 353 346 339 330 328 319 314 307 296 295 292 288 283 276 264 260 256 259 255
238 263 244 242 205 144 153 153 177 176 151 146 149 133 126 157 136 130 120 96 84 61 44 30 26 27 22 15 9 5 1 353 344 340 337 325 320 311 306 302 296 287 285 284 273 261 257 254 256
260 243 257 275 247 182 182 173 190 177 163 155 145 150 142 160 159 144 127 103 83 66 48 35 25 17 7 4 7 5 2 2 358 352 345 337 330 325 319 308 300 297 292 287 283 273 261 256 253
272 270 260 248 235 236 138 166 175 176 157 130 164 191 182 176 159 147 136 121 99 82 54 29 16 10 10 6 2 1 2 356 351 350 344 337 327 320 313 309 306 301 295 291 285 279 272 261 258
263 253 259 253 256 115 151 160 155 155 123 149 137 108 130 153 156 149 128 107 80 46 37 29 20 11 5 358 354 354 353 351 348 344 340 337 332 324 314 308 305 300 295 292 288 282 278 267 261
256 256 317 25 31 186 175 200 166 163 158 158 147 144 150 151 154 154 156 143 124 104 74 36 16 8 4 1 356 354 352 351 350 347 343 338 334 329 323 315 307 303 296 293 289 285 281 276 271
199 279 21 30 19 184 170 190 176 195 205 199 185 171 164 161 161 160 158 158 161 154 75 15 10 8 5 0 359 355 352 351 349 346 343 343 339 332 327 322 316 310 304 300 292 289 282 277 275
237 194 270 157 131 161 177 170 205 213 164 172 182 171 166 167 167 167 163 164 164 158 87 24 13 7 3 2 359 355 351 349 347 345 341 341 341 339 336 332 326 318 311 307 303 297 290 286 279
229 178 178 173 168 181 167 201 226 221 190 168 163 170 172 172 171 170 166 162 164 161 118 12 1 358 357 355 353 350 347 345 342 341 337 334 333 331 331 331 332 329 321 314 306 303 300 290 284
156 184 177 181 182 188 205 206 205 197 172 166 172 178 179 178 175 172 171 168 168 169 163 5 360 356 352 350 351 350 349 346 343 340 337 338 337 334 329 325 320 321 322 322 317 309 302 299 292
153 183 219 213 197 196 213 234 227 190 176 178 183 184 185 186 184 182 176 171 166 180 190 350 350 349 350 350 350 350 345 343 338 332 332 332 332 332 331 328 326 321 311 311 317 317 308 298 294
231 260 244 155 181 172 198 263 175 167 178 188 191 190 191 191 189 187 181 177 177 175 217 323 341 344 345 344 344 343 340 338 331 326 325 322 320 323 322 321 322 321 323 322 317 313 312 310 302
212 268 219 191 200 162 214 271 145 179 192 198 199 198 198 195 192 190 187 183 189 197 236 322 336 338 339 338 337 337 333 333 324 321 315 310 310 310 311 313 314 314 316 318 321 316 313 307 305
311 246 258 261 173 227 231 251 186 192 202 210 205 202 200 199 198 192 190 186 195 202 237 328 332 332 332 336 331 327 325 322 317 316 313 310 313 311 307 302 301 305 308 311 310 312 310 308 308
282 273 271 256 158 226 238 250 255 201 210 215 212 206 203 202 198 195 191 191 193 204 229 302 319 318 326 325 325 321 318 316 316 310 312 313 309 306 305 305 305 306 304 303 307 310 312 311 311
260 272 273 243 143 242 274 268 258 228 210 210 212 208 204 200 196 193 193 193 194 198 223 284 305 314 319 322 318 315 311 309 310 310 308 306 308 306 307 300 300 299 299 300 302 304 303 304 311
241 252 274 278 296 237 278 274 237 234 221 208 213 213 204 199 196 197 196 194 193 202 220 270 301 313 317 317 317 313 311 310 308 305 307 307 306 304 303 297 296 293 292 294 296 296 295 298 301
266 38 303 279 297 288 236 292 253 180 212 195 202 208 201 199 198 197 197 196 199 201 234 280 299 310 315 316 314 312 311 306 303 307 304 304 305 301 297 296 295 293 294 289 287 287 286 290 293
16 21 333 280 268 311 212 245 245 175 220 213 204 202 199 196 195 195 195 197 198 208 229 266 298 312 313 314 311 307 300 298 301 301 301 300 297 296 297 296 295 293 292 288 286 286 285 283 282
112 251 230 253 271 250 234 210 275 193 206 159 187 199 194 192 194 193 194 196 201 213 246 276 296 303 307 309 303 298 296 297 298 299 297 297 296 296 294 294 292 290 289 288 286 284 280 278 277
212 256 300 245 207 253 90 225 260 178 161 145 181 191 191 189 191 191 193 200 207 219 253 279 293 300 306 303 298 297 294 295 294 293 293 296 297 296 294 293 291 289 287 284 282 281 278 275 273
193 284 235 279 284 317 139 244 254 58 76 100 145 183 185 189 191 193 199 207 223 251 266 282 291 302 304 299 297 296 294 290 289 290 291 291 291 292 293 292 292 290 287 284 281 279 277 276 273
147 196 121 295 270 284 243 232 149 128 153 174 166 183 188 192 194 196 199 210 218 235 274 286 295 300 298 295 295 295 294 291 289 292 291 291 291 291 291 290 290 289 285 282 279 276 276 271 268
254 21 168 168 249 248 257 280 252 189 202 185 183 191 187 190 190 194 201 208 222 248 265 281 293 297 296 294 296 298 296 295 296 295 295 293 292 291 291 290 288 286 283 280 279 276 274 273 270
175 219 207 238 239 264 297 261 207 191 191 189 189 187 183 184 186 193 198 208 227 247 267 281 280 290 292 294 297 296 296 298 300 299 300 298 295 294 291 288 286 286 285 283 277 275 272 270 269
278 231 192 199 196 223 274 266 174 176 193 184 185 179 180 181 186 191 197 209 230 248 266 276 280 278 286 297 299 299 299 303 304 306 304 301 298 298 296 294 291 288 286 285 280 278 275 271 269
Height
1497 1499 1499 1500 1499 1486 1479 1488 1489 1500 1506 1515 1513 1512 1513 1522 1522 1526 1539 1538 1538 1537 1536 1536 1538 1537 1535 1532 1532 1531 1531 1530 1530 1529 1529 1529 1528 1526 1526 1527 1527 1526 1526 1527 1526 1527 1528 1529 1530
1498 1499 1500 1496 1492 1484 1475 1485 1492 1500 1511 1515 1517 1517 1519 1530 1533 1537 1540 1538 1537 1536 1536 1535 1536 1534 1533 1531 1531 1531 1530 1529 1528 1528 1527 1526 1526 1525 1527 1527 1527 1526 1527 1526 1525 1525 1527 1528 1529
1499 1499 1498 1488 1481 1480 1478 1487 1497 1510 1514 1514 1519 1521 1525 1532 1535 1537 1537 1537 1537 1536 1535 1535 1533 1533 1532 1531 1530 1530 1529 1528 1527 1527 1526 1525 1525 1525 1525 1525 1525 1525 1525 1525 1526 1526 1527 1526 1528
1500 1501 1498 1490 1479 1487 1490 1494 1504 1512 1516 1516 1518 1524 1529 1531 1534 1535 1534 1536 1537 1536 1535 1534 1534 1533 1532 1531 1531 1530 1529 1528 1527 1527 1526 1524 1524 1523 1524 1522 1523 1522 1523 1524 1525 1526 1526 1526 1526
1500 1497 1489 1485 1480 1493 1498 1500 1508 1508 1512 1517 1519 1523 1531 1532 1532 1533 1534 1534 1535 1534 1535 1535 1534 1533 1533 1533 1532 1531 1528 1527 1526 1526 1524 1523 1522 1521 1521 1521 1521 1520 1520 1520 1522 1523 1524 1524 1525
1498 1494 1486 1480 1475 1493 1500 1503 1506 1508 1515 1520 1520 1524 1531 1531 1533 1532 1532 1533 1533 1534 1534 1534 1534 1535 1536 1535 1532 1529 1527 1525 1525 1524 1522 1522 1521 1521 1519 1519 1519 1517 1517 1518 1519 1519 1520 1521 1522
1496 1489 1482 1474 1476 1494 1498 1504 1506 1508 1514 1520 1521 1523 1531 1531 1531 1531 1532 1533 1533 1533 1533 1533 1533 1533 1533 1532 1530 1528 1526 1525 1526 1524 1522 1522 1522 1520 1518 1518 1516 1514 1515 1515 1515 1516 1517 1518 1519
1497 1491 1481 1478 1477 1485 1499 1506 1507 1510 1513 1519 1522 1520 1527 1530 1529 1530 1531 1532 1533 1533 1533 1533 1533 1532 1532 1531 1529 1528 1527 1526 1525 1523 1521 1519 1519 1517 1516 1516 1515 1514 1512 1512 1512 1513 1513 1515 1515
1497 1491 1481 1475 1481 1483 1501 1506 1512 1513 1515 1520 1521 1522 1523 1524 1527 1529 1532 1533 1533 1532 1532 1532 1532 1532 1531 1530 1529 1528 1527 1525 1522 1519 1517 1516 1514 1514 1514 1513 1511 1510 1509 1509 1509 1511 1510 1510 1511
1495 1487 1480 1490 1490 1491 1501 1502 1510 1512 1515 1518 1520 1521 1521 1522 1525 1528 1531 1532 1532 1531 1532 1532 1531 1531 1530 1530 1529 1527 1525 1523 1520 1518 1517 1516 1514 1511 1510 1509 1507 1506 1506 1504 1505 1506 1507 1505 1506
1494 1488 1492 1496 1498 1497 1500 1503 1507 1505 1509 1507 1511 1516 1519 1522 1524 1526 1527 1528 1529 1529 1529 1529 1529 1529 1528 1527 1526 1524 1523 1521 1519 1517 1514 1512 1510 1509 1507 1506 1504 1502 1500 1498 1500 1500 1501 1502 1502
1493 1495 1495 1498 1500 1499 1500 1501 1503 1502 1502 1504 1508 1512 1515 1519 1521 1524 1525 1526 1527 1528 1528 1528 1527 1527 1526 1525 1524 1523 1521 1519 1517 1515 1512 1510 1508 1506 1503 1500 1499 1500 1497 1495 1495 1495 1495 1495 1496
1487 1492 1495 1496 1497 1498 1499 1499 1499 1500 1502 1505 1507 1510 1512 1515 1518 1521 1522 1524 1524 1525 1526 1526 1526 1526 1525 1524 1522 1521 1519 1517 1516 1514 1512 1510 1507 1504 1502 1500 1497 1494 1492 1492 1492 1490 1489 1489 1490
1488 1491 1492 1494 1495 1497 1497 1497 1499 1495 1500 1505 1508 1511 1512 1514 1515 1517 1519 1521 1523 1523 1523 1524 1524 1524 1523 1522 1521 1519 1517 1514 1512 1510 1507 1504 1503 1502 1502 1501 1498 1495 1491 1489 1489 1488 1486 1485 1485
1492 1492 1494 1492 1492 1492 1496 1493 1488 1488 1495 1500 1504 1507 1511 1512 1514 1515 1516 1518 1520 1520 1521 1521 1521 1521 1521 1520 1518 1516 1514 1512 1511 1509 1508 1505 1500 1498 1497 1496 1495 1493 1492 1490 1487 1484 1481 1482 1480
1492 1490 1480 1479 1493 1495 1498 1465 1478 1490 1494 1498 1501 1504 1507 1509 1511 1513 1514 1515 1517 1518 1519 1519 1519 1519 1518 1518 1517 1515 1512 1510 1509 1507 1504 1504 1500 1497 1495 1494 1491 1486 1484 1483 1482 1480 1476 1475 1475
1485 1471 1471 1482 1489 1492 1496 1470 1482 1489 1492 1494 1498 1502 1505 1508 1509 1511 1512 1513 1513 1515 1517 1517 1517 1516 1515 1514 1514 1512 1511 1508 1506 1504 1503 1501 1500 1497 1493 1491 1488 1485 1483 1481 1479 1478 1475 1473 1471
1472 1475 1465 1469 1488 1492 1488 1480 1482 1484 1486 1487 1491 1494 1496 1501 1505 1507 1509 1510 1511 1512 1513 1514 1515 1514 1512 1511 1511 1510 1508 1506 1504 1502 1500 1496 1496 1493 1491 1490 1488 1485 1481 1480 1478 1475 1476 1474 1469
1479 1475 1470 1468 1486 1486 1476 1472 1467 1477 1481 1480 1481 1486 1491 1495 1500 1504 1506 1508 1508 1509 1510 1511 1512 1511 1509 1508 1507 1506 1504 1502 1500 1498 1496 1494 1493 1492 1490 1487 1485 1483 1482 1479 1475 1473 1471 1469 1467
1480 1476 1467 1467 1487 1490 1473 1459 1455 1454 1458 1465 1473 1478 1484 1491 1496 1498 1501 1504 1506 1508 1508 1508 1508 1507 1506 1504 1503 1501 1499 1499 1496 1495 1493 1491 1490 1488 1486 1484 1481 1479 1478 1475 1474 1472 1471 1469 1466
1477 1474 1467 1472 1482 1476 1476 1442 1433 1436 1445 1456 1463 1470 1476 1480 1489 1495 1497 1498 1500 1503 1505 1504 1503 1502 1501 1500 1499 1498 1496 1495 1494 1492 1489 1487 1485 1483 1481 1480 1477 1476 1474 1472 1470 1470 1469 1466 1463
1474 1482 1485 1486 1482 1464 1475 1430 1419 1433 1438 1445 1455 1462 1470 1475 1482 1488 1493 1496 1498 1499 1499 1500 1498 1497 1497 1495 1495 1494 1492 1491 1490 1486 1484 1482 1481 1479 1477 1475 1473 1471 1468 1468 1468 1467 1465 1461 1458
1484 1493 1491 1489 1482 1478 1462 1469 1407 1435 1441 1442 1451 1457 1465 1470 1477 1482 1487 1491 1494 1494 1494 1496 1494 1492 1492 1492 1491 1489 1488 1488 1485 1482 1481 1479 1477 1475 1473 1470 1468 1466 1464 1462 1462 1460 1458 1456 1455
1492 1490 1489 1488 1483 1476 1438 1449 1405 1428 1431 1436 1447 1454 1461 1468 1474 1478 1483 1488 1489 1490 1490 1491 1489 1489 1488 1487 1487 1485 1483 1483 1480 1478 1477 1474 1472 1470 1468 1466 1464 1461 1459 1457 1456 1454 1453 1452 1450
1493 1484 1467 1460 1475 1437 1454 1449 1414 1428 1435 1439 1443 1450 1456 1463 1470 1474 1478 1482 1484 1485 1486 1487 1486 1485 1484 1483 1482 1480 1479 1477 1476 1474 1472 1469 1466 1464 1462 1460 1458 1455 1453 1451 1449 1448 1446 1446 1444
1488 1482 1471 1453 1432 1425 1473 1441 1409 1438 1442 1444 1445 1450 1456 1462 1467 1471 1475 1478 1480 1480 1482 1483 1482 1480 1479 1479 1477 1476 1474 1472 1471 1469 1466 1463 1460 1458 1456 1453 1451 1448 1447 1445 1443 1441 1440 1438 1437
1477 1481 1483 1482 1458 1464 1421 1408 1436 1440 1442 1446 1446 1449 1453 1457 1462 1467 1470 1474 1476 1478 1478 1479 1477 1476 1475 1473 1472 1470 1468 1467 1466 1463 1460 1457 1455 1453 1450 1447 1443 1442 1440 1438 1437 1434 1432 1431 1429
1484 1487 1479 1481 1472 1440 1398 1390 1389 1433 1435 1441 1444 1446 1450 1454 1459 1464 1467 1470 1472 1474 1475 1474 1472 1472 1470 1468 1466 1464 1463 1461 1459 1457 1454 1451 1448 1446 1443 1440 1437 1435 1433 1431 1429 1427 1425 1423 1421
1486 1482 1482 1476 1482 1458 1427 1393 1421 1419 1424 1429 1435 1438 1442 1447 1453 1459 1462 1465 1468 1470 1471 1470 1469 1467 1465 1463 1462 1460 1458 1456 1453 1450 1447 1444 1441 1439 1436 1433 1430 1427 1425 1423 1422 1419 1417 1415 1413
1466 1462 1461 1463 1461 1460 1466 1411 1420 1421 1421 1426 1430 1432 1438 1444 1450 1454 1457 1461 1464 1465 1465 1465 1465 1464 1462 1459 1457 1456 1454 1451 1448 1444 1441 1438 1434 1432 1429 1426 1424 1421 1418 1416 1414 1411 1410 1408 1405